Daviess Cnty AP, Washington,, IN

3:01 PM EDT on June 23, 2017 (GMT -0400)
Daviess County

Weather History for KDCY - January, 2015

Change the Weather History Date:

Thursday, January 15, 2015

  Actual Average (KLWV) Record (KLWV)
Temperature  
Mean Temperature 28 °F -  
Max Temperature 37 °F 34 °F 57 °F (2007)
Min Temperature 20 °F 20 °F -1 °F (2009)
Degree Days  
Heating Degree Days 36    
Moisture  
Dew Point 19 °F    
Average Humidity 67    
Maximum Humidity 87    
Minimum Humidity 42    
Precipitation  
Precipitation 0.00 in - - ()
Sea Level Pressure  
Sea Level Pressure 30.19 in    
Wind  
Wind Speed 4 mph (SW)    
Max Wind Speed 12 mph    
Max Gust Speed 10 mph    
Visibility 10 miles    
Events      
Averages and records for this station are not official NWS values.
T = Trace of Precipitation, MM = Missing Value Source: NWS Daily Summary

Daily Weather History Graph

Daily Weather History Graph

Search for Another Location

Airport or City:

Trip Planner

Search our weather history database for the weather conditions in past years. The results will help you decide how hot, cold, wet, or windy it might be!

Date:

Astronomy

Jan. 15, 2015 Rise Set
Actual Time 8:05 AM EST 5:50 PM EST
Civil Twilight 7:36 AM EST 6:20 PM EST
Nautical Twilight 7:03 AM EST 6:52 PM EST
Astronomical Twilight 6:31 AM EST 7:24 PM EST
Moon 2:59 AM EST (1/15) 1:41 PM EST (1/15)
Length of Visible Light 10h 44m
Length of Day
9h 45m
Waning Crescent, 28% of the Moon is Illuminated
Jan 15
Waning Crescent
Jan 20
New
Jan 26
First Quarter
Feb 3
Full
Feb 11
Last Quarter

Hourly Weather History & Observations

Time (EST) Temp. Windchill Dew Point Humidity Pressure Visibility Wind Dir Wind Speed Gust Speed Precip Events Conditions
12:15 AM 25.5 °F 21.3 °F 15.4 °F 66% 30.28 in 10.0 mi South 3.5 mph - N/A   Overcast
12:35 AM 25.5 °F - 15.4 °F 66% 30.27 in 10.0 mi Calm Calm - N/A   Overcast
12:55 AM 25.5 °F - 15.3 °F 65% 30.27 in 10.0 mi Calm Calm - N/A   Overcast
1:15 AM 25.7 °F - 15.6 °F 66% 30.26 in 10.0 mi Calm Calm - N/A   Overcast
1:35 AM 25.7 °F - 15.6 °F 66% 30.25 in 10.0 mi Calm Calm - N/A   Overcast
1:55 AM 25.7 °F - 15.8 °F 66% 30.25 in 10.0 mi Calm Calm - N/A   Overcast
2:15 AM 25.7 °F 21.5 °F 15.8 °F 66% 30.25 in 10.0 mi South 3.5 mph - N/A   Overcast
2:35 AM 25.9 °F 21.7 °F 16.9 °F 69% 30.25 in 10.0 mi South 3.5 mph - N/A   Overcast
2:55 AM 25.7 °F 20.1 °F 16.7 °F 69% 30.25 in 10.0 mi South 4.6 mph - N/A   Overcast
3:15 AM 26.1 °F 20.5 °F 17.1 °F 69% 30.24 in 10.0 mi South 4.6 mph - N/A   Overcast
3:35 AM 26.1 °F 21.9 °F 17.2 °F 69% 30.23 in 10.0 mi South 3.5 mph - N/A   Overcast
3:55 AM 26.1 °F 20.5 °F 17.1 °F 69% 30.22 in 10.0 mi South 4.6 mph - N/A   Overcast
4:15 AM 26.2 °F 22.1 °F 17.1 °F 68% 30.22 in 10.0 mi South 3.5 mph - N/A   Overcast
4:35 AM 26.4 °F 20.9 °F 17.6 °F 69% 30.22 in 10.0 mi South 4.6 mph - N/A   Overcast
4:55 AM 26.4 °F - 17.8 °F 70% 30.21 in 10.0 mi Calm Calm - N/A   Overcast
5:15 AM 26.6 °F - 18.1 °F 70% 30.20 in 10.0 mi Calm Calm - N/A   Overcast
5:35 AM 26.4 °F - 17.6 °F 69% 30.20 in 10.0 mi Calm Calm - N/A   Overcast
5:55 AM 25.0 °F - 18.5 °F 76% 30.21 in 10.0 mi Calm Calm - N/A   Overcast
6:15 AM 24.4 °F - 17.6 °F 75% 30.21 in 10.0 mi Calm Calm - N/A   Scattered Clouds
6:35 AM 23.2 °F - 17.2 °F 78% 30.21 in 10.0 mi Calm Calm - N/A   Scattered Clouds
6:55 AM 21.0 °F 16.2 °F 17.6 °F 87% 30.21 in 10.0 mi South 3.5 mph - N/A   Mostly Cloudy
7:15 AM 20.5 °F - 17.1 °F 87% 30.21 in 7.0 mi Calm Calm - N/A   Scattered Clouds
7:35 AM 20.3 °F - 16.7 °F 86% 30.21 in 7.0 mi Calm Calm - N/A   Clear
7:55 AM 20.8 °F - 17.6 °F 87% 30.22 in 10.0 mi Calm Calm - N/A   Scattered Clouds
8:15 AM 21.2 °F - 16.9 °F 83% 30.22 in 10.0 mi Calm Calm - N/A   Scattered Clouds
8:35 AM 21.7 °F - 18.0 °F 85% 30.22 in 7.0 mi Calm Calm - N/A   Scattered Clouds
8:55 AM 22.8 °F - 18.3 °F 83% 30.22 in 7.0 mi Calm Calm - N/A   Scattered Clouds
9:15 AM 25.2 °F 20.9 °F 19.9 °F 81% 30.22 in 7.0 mi SW 3.5 mph - N/A   Clear
9:35 AM 27.5 °F 21.1 °F 18.7 °F 69% 30.22 in 10.0 mi WSW 5.8 mph - N/A   Clear
9:55 AM 28.4 °F 22.2 °F 18.0 °F 65% 30.22 in 10.0 mi WSW 5.8 mph - N/A   Clear
10:15 AM 29.7 °F 22.8 °F 16.0 °F 57% 30.23 in 10.0 mi WSW 6.9 mph - N/A   Clear
10:35 AM 30.9 °F 27.5 °F 15.8 °F 54% 30.23 in 10.0 mi WSW 3.5 mph - N/A   Clear
10:55 AM 31.5 °F 23.5 °F 15.6 °F 52% 30.23 in 10.0 mi WSW 9.2 mph - N/A   Clear
11:15 AM 32.0 °F 24.8 °F 15.3 °F 50% 30.23 in 10.0 mi West 8.1 mph - N/A   Clear
11:35 AM 32.4 °F 27.9 °F 14.5 °F 48% 30.22 in 10.0 mi WSW 4.6 mph - N/A   Clear
11:55 AM 33.8 °F 27.0 °F 14.5 °F 45% 30.21 in 10.0 mi West 8.1 mph - N/A   Clear
12:15 PM 34.5 °F 27.3 °F 14.9 °F 45% 30.20 in 10.0 mi WSW 9.2 mph - N/A   Clear
12:35 PM 34.3 °F 27.0 °F 14.4 °F 44% 30.19 in 10.0 mi SW 9.2 mph - N/A   Clear
12:55 PM 35.4 °F 27.8 °F 16.3 °F 46% 30.17 in 10.0 mi WSW 10.4 mph - N/A   Clear
1:15 PM 35.6 °F 28.6 °F 15.3 °F 43% 30.16 in 10.0 mi SW 9.2 mph - N/A   Clear
1:35 PM 35.8 °F 30.1 °F 14.7 °F 42% 30.15 in 10.0 mi SW 6.9 mph - N/A   Clear
1:55 PM 36.5 °F 28.7 °F 15.3 °F 42% 30.13 in 10.0 mi SW 11.5 mph - N/A   Clear
2:15 PM 36.7 °F 29.9 °F 16.3 °F 44% 30.13 in 10.0 mi WSW 9.2 mph - N/A   Clear
2:35 PM 37.0 °F 30.4 °F 17.6 °F 45% 30.13 in 10.0 mi WSW 9.2 mph - N/A   Clear
2:55 PM 37.4 °F 30.3 °F 18.9 °F 47% 30.14 in 10.0 mi West 10.4 mph - N/A   Clear
3:15 PM 37.6 °F 30.5 °F 19.0 °F 47% 30.14 in 10.0 mi WSW 10.4 mph - N/A   Clear
3:35 PM 37.4 °F 30.3 °F 19.4 °F 48% 30.14 in 10.0 mi West 10.4 mph - N/A   Clear
3:55 PM 37.4 °F 32.1 °F 20.5 °F 51% 30.13 in 10.0 mi West 6.9 mph 10.4 mph N/A   Clear
4:15 PM 37.0 °F 31.0 °F 21.0 °F 52% 30.13 in 10.0 mi West 8.1 mph - N/A   Clear
4:35 PM 36.9 °F 31.4 °F 20.8 °F 52% 30.13 in 10.0 mi WSW 6.9 mph - N/A   Clear
4:55 PM 36.5 °F 29.7 °F 21.2 °F 54% 30.14 in 10.0 mi WSW 9.2 mph - N/A   Clear
5:15 PM 35.6 °F 31.7 °F 21.9 °F 58% 30.14 in 10.0 mi SW 4.6 mph - N/A   Clear
5:35 PM 34.7 °F 28.8 °F 22.3 °F 61% 30.14 in 10.0 mi WSW 6.9 mph - N/A   Clear
5:55 PM 33.3 °F 28.9 °F 22.6 °F 65% 30.14 in 10.0 mi SW 4.6 mph - N/A   Clear
6:15 PM 31.8 °F 27.3 °F 23.7 °F 72% 30.14 in 10.0 mi SW 4.6 mph - N/A   Clear
6:35 PM 30.4 °F 26.9 °F 24.3 °F 78% 30.14 in 10.0 mi SSW 3.5 mph - N/A   Clear
6:55 PM 29.1 °F 23.0 °F 23.9 °F 81% 30.15 in 10.0 mi SSW 5.8 mph - N/A   Clear
7:15 PM 32.0 °F 24.8 °F 24.3 °F 73% 30.15 in 10.0 mi SSW 8.1 mph - N/A   Clear
7:35 PM 32.4 °F 24.6 °F 25.3 °F 75% 30.15 in 10.0 mi SSW 9.2 mph - N/A   Clear
7:55 PM 32.4 °F 25.3 °F 25.5 °F 76% 30.15 in 10.0 mi SSW 8.1 mph - N/A   Clear
8:15 PM 32.2 °F 25.0 °F 25.7 °F 77% 30.15 in 10.0 mi SSW 8.1 mph - N/A   Clear
8:35 PM 32.0 °F 24.8 °F 25.5 °F 77% 30.15 in 10.0 mi SSW 8.1 mph - N/A   Clear
8:55 PM 32.0 °F 24.2 °F 25.5 °F 77% 30.16 in 10.0 mi SW 9.2 mph - N/A   Clear
9:15 PM 31.8 °F 23.9 °F 25.7 °F 78% 30.16 in 10.0 mi SSW 9.2 mph - N/A   Clear
9:35 PM 31.6 °F 23.1 °F 25.7 °F 79% 30.17 in 10.0 mi SSW 10.4 mph - N/A   Clear
9:55 PM 31.1 °F 23.1 °F 26.2 °F 82% 30.17 in 10.0 mi SW 9.2 mph - N/A   Clear
10:15 PM 30.9 °F 21.7 °F 26.2 °F 83% 30.17 in 10.0 mi SW 11.5 mph - N/A   Clear
10:35 PM 30.7 °F 22.0 °F 26.4 °F 84% 30.16 in 10.0 mi SW 10.4 mph - N/A   Clear
10:55 PM 30.2 °F 21.3 °F 26.2 °F 85% 30.16 in 10.0 mi SW 10.4 mph - N/A   Clear
11:15 PM 30.2 °F 21.3 °F 26.2 °F 85% 30.16 in 10.0 mi SW 10.4 mph - N/A   Clear
11:35 PM 30.0 °F 21.7 °F 26.2 °F 86% 30.16 in 10.0 mi SW 9.2 mph - N/A   Clear
11:55 PM 30.0 °F 22.4 °F 26.2 °F 86% 30.15 in 10.0 mi SW 8.1 mph - N/A   Clear